Location: Mahannah Oil Field
(37.4664°N, 96.6003°W)
Time: 02:09:24
(UTC+00:00)

deb Explorer IX - Pass Details

Date: 22 January 2021
Orbit: 537 x 1102 km, 38.8° (Epoch: 25 February)

Event Time Altitude Azimuth Distance (km) Brightness Sun altitude
Rises 03:48:39 0° 277° (W) 3,303 ? -49.2°
Enters shadow 03:50:01 - 278° (W) 2,772 ? -49.5°
Reaches altitude 10° 03:51:19 10° 279° (W) 2,274 - -49.7°
Maximum altitude 03:56:35 79° 6° (N) 682 - -50.7°
Drops below altitude 10° 04:01:05 10° 93° (E) 1,949 - -51.6°
Sets 04:03:14 0° 95° (E) 2,794 - -52.0°
